Location: Unspecified
(0.0000°N, 0.0000°E)
Time: 06:44:09
(UTC+00:00)

Courier 1B - Pass Details

Date: 25 September 2023
Orbit: 962 x 1208 km, 28.3° (Epoch: 06 December)

Event Time Altitude Azimuth Distance (km) Brightness Sun altitude
Rises 09:42:23 0° 240° (WSW) 3,849 10.3 57.6°
Reaches altitude 10° 09:45:03 10° 240° (WSW) 2,929 9.8 58.3°
Maximum altitude 09:52:19 90° 135° (SE) 1,139 9.2 60.1°
Drops below altitude 10° 10:00:02 10° 60° (ENE) 3,092 10.6 62.0°
Sets 10:02:55 0° 60° (ENE) 4,075 11.1 62.8°
